Alyeska Resort Wx Sites
Hourly Roundup from Summit Site
ALYSUM 3/4/2015
Click Here to View Graph!

        DATE  TIME   Air  Wind  Wind  Wind   Rel  BATT Solar
                    Temp   Spd   Dir  Gust  Hum%  Volt Watts
                      F   AVG   AVG   MAX   AVG   AVG    M

    3/4/2015 01:00    28     0     0     0   100 12.92  0.00
    3/3/2015 24:00    28     0     0     0    99 12.95  0.00
    3/3/2015 23:00    28     0     0     0    98 12.98  0.00
    3/3/2015 22:00    28     0     0     0   100 13.05  0.00
    3/3/2015 21:00    28     0     0     0   100 13.17  0.00
    3/3/2015 20:00    28     0     0     0   100 13.38  0.00
    3/3/2015 19:00    27     0     0     0   100 13.70  1.94
    3/3/2015 18:00    27     0    93     0   100 14.09 19.88
    3/3/2015 17:00    28     0    85     0    98 14.76 62.52
    3/3/2015 16:00    27     0   109     0    98 14.86102.70
    3/3/2015 15:00    27     0   110     0    99 14.87118.80
    3/3/2015 14:00    27     0    96     0    99 14.87126.40
    3/3/2015 13:00    26     0   106     1    99 14.87124.80
    3/3/2015 12:00    26     0   115     0   100 14.91121.20
    3/3/2015 11:00    26     0   100     0    99 14.17 77.14
    3/3/2015 10:00    26     0   101     0    97 13.31 54.94
    3/3/2015 09:00    25     0    98     0    97 12.92 19.73
    3/3/2015 08:00    25     0    85     0    97 12.83  1.10
    3/3/2015 07:00    24     0   112     0   100 12.83  0.00
    3/3/2015 06:00    24     0   102     0    99 12.84  0.00
    3/3/2015 05:00    24     0   105     0   100 12.85  0.00
    3/3/2015 04:00    24     0   114     0   100 12.86  0.00
    3/3/2015 03:00    23     0   114     1   100 12.88  0.00
    3/3/2015 02:00    23     0   114     1   100 12.90  0.00


Click Here to View Graph!